This demonstration page uses our WeatherBlox Daily Observations layout. Learn more.

Left ArrowRight Arrow

38.20091, -84.87328

Hourly Observations for July 19, 2022

Temp ( °F °C ) Dew Point ( °F °C ) Humidity (%) Winds ( mph kmh ) Pressure ( in mb ) Visibility ( mi km ) Precip ( " mm )
12:53 am 00:53 Clear 73 22.8 70 21.1 90 90 SSE 3 6 29.92 1013 10 16 0.00 0.00
1:53 am 01:53 Clear 72 22.2 70 21.1 94 94 SSW 3 6 29.92 1013 9 14 0.00 0.00
2:53 am 02:53 Clear 72 22.2 70 21.1 94 94 SSW 3 6 29.91 1013 8 13 0.00 0.00
3:34 am 03:34 Partly Cloudy 71 21.7 70 21.1 96 96 S 3 6 29.92 1013 8 13 0.00 0.00
3:43 am 03:43 Mostly Cloudy 71 21.7 70 21.1 96 96 S 5 7 29.91 1013 8 13 0.00 0.00
3:53 am 03:53 Cloudy 72 22.2 70 21.1 94 94 S 5 7 29.91 1013 7 11 0.00 0.00
4:53 am 04:53 Cloudy with Mist and Fog 72 22.2 70 21.1 94 94 SSW 6 9 29.91 1013 3 4 0.00 0.00
5:10 am 05:10 Cloudy with Mist and Fog 71 21.7 70 21.1 96 96 WSW 5 7 29.92 1013 2 2 0.00 0.00
5:53 am 05:53 Cloudy with Mist and Fog 71 21.7 70 21.1 96 96 WSW 3 6 29.92 1013 1 2 0.00 0.00
6:18 am 06:18 Cloudy with Mist and Fog 71 21.7 70 21.1 96 96 SW 6 9 29.93 1013 2 3 0.00 0.00
6:25 am 06:25 Cloudy with Mist and Fog 71 21.7 70 21.1 96 96 WSW 6 9 29.93 1013 2 2 0.00 0.00
6:53 am 06:53 Cloudy with Mist and Fog 71 21.7 70 21.1 96 96 SW 3 6 29.93 1014 2 2 0.00 0.00
7:12 am 07:12 Cloudy with Mist and Fog 71 21.7 70 21.1 96 96 SW 3 6 29.95 1014 1 2 0.00 0.00
7:24 am 07:24 Cloudy with Mist and Fog 71 21.7 70 21.1 96 96 SSW 6 9 29.95 1014 2 2 0.00 0.00
7:36 am 07:36 Cloudy with Mist and Fog 71 21.7 70 21.1 96 96 S 5 7 29.95 1014 3 4 0.00 0.00
7:53 am 07:53 Cloudy with Mist and Fog 71 21.7 70 21.1 96 96 SW 5 7 29.95 1014 3 4 0.00 0.00
8:23 am 08:23 Cloudy with Mist and Fog 72 22.2 71 21.7 97 97 VRB 3 6 29.96 1015 3 5 0.00 0.00
8:53 am 08:53 Cloudy with Mist and Fog 73 22.8 71 21.7 94 94 SSW 5 7 29.96 1015 4 6 0.00 0.00
9:20 am 09:20 Cloudy 74 23.3 71 21.7 91 91 SW 5 7 29.96 1015 7 11 0.00 0.00
9:34 am 09:34 Cloudy 74 23.3 70 21.1 88 88 Calm 29.96 1015 7 11 0.00 0.00
9:53 am 09:53 Mostly Cloudy 77 25 72 22.2 85 85 VRB 3 6 29.97 1015 8 13 0.00 0.00
10:07 am 10:07 Partly Cloudy 78 25.6 71 21.7 79 79 VRB 5 7 29.96 1014 10 16 0.00 0.00
10:53 am 10:53 Mostly Sunny 80 26.7 71 21.7 74 74 S 5 7 29.95 1014 10 16 0.00 0.00
11:53 am 11:53 Partly Cloudy 82 27.8 69 20.6 65 65 VRB 7 11 29.95 1014 10 16 0.00 0.00
12:53 pm 12:53 Mostly Sunny 83 28.3 67 19.4 59 59 SW 7 11 29.95 1014 10 16 0.00 0.00
1:53 pm 13:53 Mostly Sunny 85 29.4 68 20 57 57 S 6 9 29.93 1014 10 16 0.00 0.00
2:53 pm 14:53 Mostly Sunny 87 30.6 68 20 53 53 SW 9 15 29.91 1013 10 16 0.00 0.00
3:53 pm 15:53 Mostly Sunny 87 30.6 67 19.4 51 51 S 5 7 29.90 1013 10 16 0.00 0.00
4:53 pm 16:53 Mostly Cloudy 87 30.6 68 20 53 53 SW 9 15 29.88 1012 10 16 0.00 0.00
5:53 pm 17:53 Partly Cloudy 88 31.1 68 20 52 52 SW 5 7 29.86 1011 10 16 0.00 0.00
6:53 pm 18:53 Sunny 87 30.6 68 20 53 53 SW 5 7 29.85 1011 10 16 0.00 0.00
7:53 pm 19:53 Sunny 85 29.4 67 19.4 55 55 Calm 29.84 1011 10 16 0.00 0.00
8:53 pm 20:53 Sunny 80 26.7 71 21.7 74 74 Calm 29.85 1011 10 16 0.00 0.00
9:53 pm 21:53 Clear 78 25.6 70 21.1 76 76 Calm 29.85 1011 10 16 0.00 0.00
10:53 pm 22:53 Clear 77 25 70 21.1 79 79 Calm 29.87 1012 10 16 0.00 0.00
11:53 pm 23:53 Clear 77 25 70 21.1 79 79 S 5 7 29.87 1012 10 16 0.00 0.00

Powered by AerisWeather